| time (UTC) | temp F | wind direction | speed knots | gust knots | rain 1hr in | rain 24hr in | rain mn in | humidity % | barometer mb |
| 20260507005045 | 63 | 360 | 2.6 | 7.8 | 0.00 | 0.01 | 0.00 | 65 | 1020.5 |
| 20260507004553 | 62 | 360 | 1.7 | 7.8 | 0.00 | 0.01 | 0.00 | 64 | 1020.6 |
| 20260507004042 | 63 | 360 | 2.6 | 5.2 | 0.00 | 0.01 | 0.00 | 64 | 1020.6 |
| 20260507003543 | 63 | 360 | 2.6 | 7.0 | 0.00 | 0.01 | 0.00 | 63 | 1020.6 |
| 20260507003047 | 63 | 360 | 1.7 | 8.7 | 0.00 | 0.01 | 0.00 | 64 | 1020.5 |
| 20260507002541 | 63 | 360 | 3.5 | 8.7 | 0.00 | 0.01 | 0.00 | 64 | 1020.4 |
| 20260507002041 | 63 | 360 | 2.6 | 7.8 | 0.00 | 0.01 | 0.00 | 65 | 1020.4 |
| 20260507001545 | 63 | 360 | 2.6 | 7.8 | 0.00 | 0.01 | 0.00 | 65 | 1020.4 |
| 20260507001040 | 63 | 360 | 3.5 | 10.4 | 0.00 | 0.01 | 0.00 | 64 | 1020.5 |
| 20260507000545 | 63 | 360 | 3.5 | 10.4 | 0.00 | 0.01 | 0.00 | 64 | 1020.4 |
| 20260506235539 | 63 | 360 | 2.6 | 8.7 | 0.00 | 0.01 | 0.00 | 66 | 1020.2 |
| 20260506235038 | 62 | 360 | 3.5 | 12.2 | 0.00 | 0.01 | 0.00 | 64 | 1020.3 |
| 20260506234543 | 63 | 11 | 4.3 | 12.2 | 0.00 | 0.01 | 0.00 | 66 | 1020.4 |
| 20260506234037 | 63 | 351 | 2.6 | 9.6 | 0.00 | 0.01 | 0.00 | 66 | 1020.2 |
| 20260506233536 | 62 | 360 | 3.5 | 9.6 | 0.00 | 0.01 | 0.00 | 67 | 1020.3 |
| 20260506233036 | 62 | 360 | 5.2 | 9.6 | 0.00 | 0.01 | 0.00 | 67 | 1020.4 |
| 20260506232535 | 62 | 360 | 5.2 | 9.6 | 0.00 | 0.01 | 0.00 | 67 | 1020.4 |
| 20260506232035 | 62 | 360 | 3.5 | 9.6 | 0.00 | 0.01 | 0.00 | 67 | 1020.4 |
| 20260506231534 | 62 | 360 | 3.5 | 8.7 | 0.00 | 0.01 | 0.00 | 67 | 1020.5 |
| 20260506231032 | 62 | 360 | 4.3 | 11.3 | 0.00 | 0.01 | 0.00 | 68 | 1020.5 |
| 20260506230531 | 62 | 360 | 3.5 | 11.3 | 0.00 | 0.01 | 0.00 | 71 | 1020.6 |
| 20260506230030 | 61 | 360 | 4.3 | 10.4 | 0.00 | 0.01 | 0.00 | 71 | 1020.6 |
| 20260506225529 | 61 | 360 | 4.3 | 11.3 | 0.00 | 0.01 | 0.00 | 71 | 1020.6 |
| 20260506225029 | 61 | 360 | 4.3 | 11.3 | 0.00 | 0.01 | 0.00 | 72 | 1020.7 |
| 20260506224532 | 61 | 360 | 5.2 | 11.3 | 0.00 | 0.01 | 0.00 | 72 | 1020.7 |
| 20260506224029 | 61 | 360 | 4.3 | 12.2 | 0.00 | 0.01 | 0.00 | 73 | 1020.7 |
| 20260506223527 | 61 | 360 | 7.0 | 13.0 | 0.00 | 0.01 | 0.00 | 72 | 1020.8 |
| 20260506223039 | 61 | 360 | 5.2 | 13.0 | 0.00 | 0.01 | 0.00 | 73 | 1020.7 |
| 20260506222527 | 61 | 360 | 2.6 | 12.2 | 0.00 | 0.01 | 0.00 | 74 | 1020.8 |
| 20260506222028 | 60 | 360 | 6.1 | 12.2 | 0.00 | 0.01 | 0.00 | 74 | 1020.8 |
| 20260506221526 | 61 | 360 | 5.2 | 12.2 | 0.00 | 0.01 | 0.00 | 73 | 1020.9 |
| 20260506221025 | 60 | 360 | 5.2 | 12.2 | 0.00 | 0.01 | 0.00 | 74 | 1021.1 |
| 20260506220525 | 60 | 360 | 5.2 | 12.2 | 0.00 | 0.01 | 0.00 | 75 | 1021.0 |
| 20260506220026 | 60 | 360 | 6.1 | 12.2 | 0.00 | 0.01 | 0.00 | 74 | 1021.2 |
| 20260506215029 | 60 | 360 | 7.8 | 13.9 | 0.00 | 0.01 | 0.00 | 74 | 1021.1 |
| 20260506214537 | 60 | 360 | 4.3 | 11.3 | 0.00 | 0.01 | 0.00 | 75 | 1021.2 |
| 20260506214024 | 60 | 360 | 6.1 | 10.4 | 0.00 | 0.01 | 0.00 | 74 | 1021.2 |
| 20260506213526 | 60 | 350 | 5.2 | 10.4 | 0.00 | 0.01 | 0.00 | 74 | 1021.3 |
| 20260506213024 | 60 | 360 | 3.5 | 9.6 | 0.00 | 0.01 | 0.00 | 76 | 1021.3 |
| 20260506212522 | 59 | 360 | 4.3 | 12.2 | 0.00 | 0.01 | 0.00 | 76 | 1021.3 |
| 20260506212021 | 59 | 360 | 7.8 | 12.2 | 0.00 | 0.01 | 0.00 | 75 | 1021.3 |
| 20260506211620 | 59 | 360 | 5.2 | 12.2 | 0.00 | 0.01 | 0.00 | 76 | 1021.4 |
| 20260506211020 | 59 | 360 | 7.0 | 12.2 | 0.00 | 0.01 | 0.00 | 77 | 1021.4 |
| 20260506210520 | 59 | 360 | 5.2 | 12.2 | 0.00 | 0.01 | 0.00 | 77 | 1021.2 |
| 20260506210021 | 59 | 360 | 7.0 | 12.2 | 0.00 | 0.01 | 0.00 | 76 | 1021.4 |
| 20260506205518 | 59 | 360 | 2.6 | 9.6 | 0.00 | 0.01 | 0.00 | 79 | 1021.4 |
| 20260506205018 | 58 | 360 | 3.5 | 13.0 | 0.00 | 0.01 | 0.00 | 79 | 1021.3 |
| 20260506204518 | 57 | 360 | 6.1 | 13.0 | 0.00 | 0.01 | 0.00 | 79 | 1021.4 |
| 20260506204017 | 57 | 360 | 7.8 | 13.0 | 0.00 | 0.01 | 0.00 | 80 | 1021.3 |
| 20260506203517 | 57 | 360 | 5.2 | 14.8 | 0.00 | 0.01 | 0.00 | 80 | 1021.4 |
| 20260506203020 | 57 | 360 | 7.8 | 14.8 | 0.00 | 0.01 | 0.00 | 79 | 1021.5 |
| 20260506202516 | 57 | 360 | 1.7 | 13.0 | 0.00 | 0.01 | 0.00 | 80 | 1021.6 |
| 20260506202015 | 57 | 360 | 5.2 | 10.4 | 0.00 | 0.01 | 0.00 | 80 | 1021.8 |
| 20260506201515 | 57 | 360 | 7.0 | 13.0 | 0.00 | 0.01 | 0.00 | 81 | 1021.7 |
| 20260506201016 | 56 | 360 | 7.0 | 13.0 | 0.00 | 0.01 | 0.00 | 81 | 1021.8 |
| 20260506200513 | 56 | 15 | 4.3 | 11.3 | 0.00 | 0.01 | 0.00 | 82 | 1021.8 |
| 20260506200012 | 56 | 347 | 4.3 | 11.3 | 0.00 | 0.01 | 0.00 | 82 | 1021.7 |
| 20260506195511 | 56 | 360 | 3.5 | 11.3 | 0.00 | 0.01 | 0.00 | 83 | 1021.9 |
| 20260506195010 | 55 | 360 | 6.1 | 11.3 | 0.00 | 0.01 | 0.00 | 83 | 1021.8 |
| 20260506194510 | 55 | 18 | 2.6 | 8.7 | 0.00 | 0.01 | 0.00 | 83 | 1022.0 |
| 20260506194012 | 55 | 360 | 4.3 | 8.7 | 0.00 | 0.01 | 0.00 | 84 | 1022.0 |
| 20260506193507 | 54 | 360 | 3.5 | 8.7 | 0.00 | 0.01 | 0.00 | 85 | 1022.0 |
| 20260506193006 | 54 | 360 | 4.3 | 11.3 | 0.00 | 0.01 | 0.00 | 85 | 1022.1 |
| 20260506192507 | 54 | 360 | 5.2 | 11.3 | 0.00 | 0.01 | 0.00 | 85 | 1022.4 |
| 20260506192007 | 53 | 18 | 2.6 | 13.0 | 0.00 | 0.01 | 0.00 | 85 | 1022.4 |
| 20260506191506 | 53 | 360 | 6.1 | 13.0 | 0.00 | 0.01 | 0.00 | 85 | 1022.2 |
| 20260506191007 | 53 | 360 | 6.1 | 11.3 | 0.00 | 0.01 | 0.00 | 85 | 1022.3 |
| 20260506190509 | 53 | 360 | 4.3 | 10.4 | 0.00 | 0.01 | 0.00 | 85 | 1022.4 |
| 20260506190008 | 53 | 360 | 3.5 | 10.4 | 0.00 | 0.01 | 0.00 | 86 | 1022.6 |
| 20260506185504 | 53 | 360 | 4.3 | 10.4 | 0.00 | 0.01 | 0.00 | 85 | 1022.6 |
| 20260506185103 | 53 | 10 | 2.6 | 8.7 | 0.00 | 0.01 | 0.00 | 86 | 1022.5 |
| 20260506184503 | 52 | 360 | 5.2 | 10.4 | 0.00 | 0.01 | 0.00 | 85 | 1022.6 |
| 20260506184006 | 52 | 345 | 5.2 | 10.4 | 0.00 | 0.01 | 0.00 | 85 | 1022.7 |
| 20260506183504 | 53 | 360 | 3.5 | 10.4 | 0.00 | 0.01 | 0.00 | 86 | 1022.7 |
| 20260506183007 | 52 | 360 | 3.5 | 10.4 | 0.00 | 0.01 | 0.00 | 87 | 1022.7 |
| 20260506182501 | 52 | 30 | 6.1 | 10.4 | 0.00 | 0.01 | 0.00 | 85 | 1022.7 |
| 20260506182100 | 52 | 360 | 5.2 | 11.3 | 0.00 | 0.01 | 0.00 | 86 | 1022.7 |
| 20260506181624 | 52 | 360 | 6.1 | 11.3 | 0.00 | 0.01 | 0.00 | 86 | 1022.8 |
| 20260506181059 | 52 | 360 | 5.2 | 12.2 | 0.00 | 0.01 | 0.00 | 86 | 1022.8 |
| 20260506180601 | 52 | 360 | 7.0 | 12.2 | 0.00 | 0.01 | 0.00 | 86 | 1022.8 |
| 20260506180059 | 52 | 360 | 5.2 | 10.4 | 0.00 | 0.01 | 0.00 | 85 | 1022.9 |
| 20260506175557 | 51 | 360 | 3.5 | 9.6 | 0.00 | 0.02 | 0.00 | 84 | 1023.0 |
| 20260506175057 | 51 | 360 | 5.2 | 8.7 | 0.00 | 0.02 | 0.00 | 84 | 1022.9 |
| 20260506174557 | 51 | 18 | 4.3 | 8.7 | 0.00 | 0.02 | 0.00 | 82 | 1022.8 |
| 20260506174057 | 51 | 360 | 2.6 | 8.7 | 0.00 | 0.02 | 0.00 | 84 | 1022.9 |
| 20260506173557 | 51 | 360 | 3.5 | 8.7 | 0.00 | 0.02 | 0.00 | 86 | 1022.9 |
| 20260506173106 | 51 | 360 | 3.5 | 8.7 | 0.00 | 0.02 | 0.00 | 86 | 1023.0 |
| 20260506172601 | 51 | 360 | 3.5 | 7.8 | 0.00 | 0.02 | 0.00 | 87 | 1023.0 |
| 20260506172057 | 51 | 292 | 1.7 | 10.4 | 0.00 | 0.02 | 0.00 | 87 | 1022.9 |
| 20260506171602 | 51 | 360 | 4.3 | 10.4 | 0.00 | 0.02 | 0.00 | 85 | 1022.9 |
| 20260506171056 | 51 | 360 | 2.6 | 9.6 | 0.00 | 0.02 | 0.00 | 86 | 1023.0 |
| 20260506170559 | 51 | 360 | 4.3 | 9.6 | 0.00 | 0.02 | 0.00 | 85 | 1023.0 |
| 20260506170057 | 51 | 360 | 2.6 | 8.7 | 0.00 | 0.02 | 0.00 | 84 | 1022.9 |
| 20260506165600 | 51 | 360 | 4.3 | 8.7 | 0.00 | 0.03 | 0.00 | 85 | 1022.9 |
| 20260506165055 | 51 | 348 | 2.6 | 8.7 | 0.00 | 0.03 | 0.00 | 85 | 1022.8 |
| 20260506164655 | 51 | 360 | 3.5 | 8.7 | 0.00 | 0.03 | 0.00 | 83 | 1022.8 |
| 20260506164056 | 51 | 28 | 4.3 | 8.7 | 0.00 | 0.03 | 0.00 | 85 | 1022.8 |
| 20260506163554 | 51 | 360 | 5.2 | 8.7 | 0.00 | 0.03 | 0.00 | 84 | 1022.8 |
| 20260506163055 | 51 | 360 | 4.3 | 8.7 | 0.00 | 0.03 | 0.00 | 81 | 1022.9 |
| 20260506162554 | 51 | 360 | 3.5 | 7.8 | 0.00 | 0.03 | 0.00 | 82 | 1022.9 |
| 20260506162058 | 51 | 360 | 4.3 | 10.4 | 0.00 | 0.03 | 0.00 | 82 | 1022.9 |
| 20260506161554 | 51 | 13 | 4.3 | 10.4 | 0.00 | 0.03 | 0.00 | 80 | 1023.0 |
| 20260506161056 | 51 | 350 | 4.3 | 8.7 | 0.00 | 0.03 | 0.00 | 84 | 1022.9 |
| 20260506160552 | 51 | 35 | 1.7 | 7.0 | 0.00 | 0.03 | 0.00 | 84 | 1022.9 |
| 20260506160054 | 50 | 360 | 1.7 | 7.0 | 0.00 | 0.03 | 0.00 | 83 | 1023.0 |
| 20260506155553 | 50 | 360 | 1.7 | 7.0 | 0.00 | 0.06 | 0.00 | 87 | 1023.0 |
| 20260506155050 | 50 | 20 | 1.7 | 5.2 | 0.00 | 0.06 | 0.00 | 88 | 1022.9 |
| 20260506154552 | 50 | 17 | 1.7 | 5.2 | 0.00 | 0.06 | 0.00 | 87 | 1023.0 |
| 20260506154050 | 50 | 360 | 1.7 | 3.5 | 0.00 | 0.06 | 0.00 | 88 | 1023.0 |
| 20260506153551 | 50 | 117 | 0.9 | 5.2 | 0.00 | 0.06 | 0.00 | 87 | 1023.0 |
| 20260506153108 | 50 | 360 | 0.9 | 5.2 | 0.00 | 0.06 | 0.00 | 87 | 1023.0 |
| 20260506152550 | 50 | 360 | 2.6 | 5.2 | 0.00 | 0.06 | 0.00 | 85 | 1023.1 |
| 20260506152050 | 51 | 44 | 2.6 | 4.3 | 0.00 | 0.06 | 0.00 | 85 | 1023.1 |
| 20260506151548 | 51 | 49 | 0.9 | 5.2 | 0.00 | 0.06 | 0.00 | 85 | 1023.0 |
| 20260506151051 | 50 | 30 | 2.6 | 5.2 | 0.00 | 0.06 | 0.00 | 85 | 1023.0 |
| 20260506150548 | 50 | 348 | 0.9 | 3.5 | 0.00 | 0.06 | 0.00 | 86 | 1022.9 |
| 20260506150056 | 50 | 16 | 0.0 | 3.5 | 0.00 | 0.06 | 0.00 | 85 | 1022.7 |
| 20260506145548 | 50 | 360 | 0.9 | 4.3 | 0.00 | 0.06 | 0.00 | 84 | 1022.8 |
| 20260506145045 | 50 | 360 | 0.9 | 7.0 | 0.00 | 0.06 | 0.00 | 86 | 1022.7 |
| 20260506144554 | 49 | 92 | 0.0 | 7.0 | 0.00 | 0.06 | 0.00 | 86 | 1022.7 |
| 20260506144145 | 49 | 360 | 3.5 | 7.0 | 0.00 | 0.06 | 0.00 | 86 | 1022.7 |
| 20260506143544 | 48 | 360 | 1.7 | 5.2 | 0.00 | 0.06 | 0.00 | 86 | 1022.8 |
| 20260506143044 | 48 | 5 | 0.9 | 5.2 | 0.00 | 0.06 | 0.00 | 86 | 1022.8 |
| 20260506142541 | 49 | 324 | 1.7 | 4.3 | 0.00 | 0.06 | 0.00 | 85 | 1022.7 |
| 20260506142044 | 49 | 348 | 2.6 | 4.3 | 0.00 | 0.06 | 0.00 | 85 | 1022.6 |
| 20260506141541 | 49 | 18 | 0.0 | 2.6 | 0.00 | 0.06 | 0.00 | 87 | 1022.5 |
| 20260506141039 | 48 | 19 | 0.0 | 2.6 | 0.00 | 0.06 | 0.00 | 86 | 1022.4 |
| 20260506140546 | 48 | 67 | 0.0 | 2.6 | 0.00 | 0.06 | 0.00 | 87 | 1022.4 |
| 20260506140037 | 48 | 67 | 0.0 | 2.6 | 0.00 | 0.06 | 0.00 | 87 | 1022.3 |
| 20260506135535 | 48 | 28 | 0.0 | 1.7 | 0.00 | 0.06 | 0.00 | 87 | 1022.4 |
| 20260506135035 | 47 | 28 | 0.0 | 3.5 | 0.00 | 0.06 | 0.00 | 87 | 1022.2 |
| 20260506134535 | 47 | 308 | 0.9 | 3.5 | 0.00 | 0.06 | 0.00 | 87 | 1022.4 |
| 20260506134036 | 46 | 297 | 0.0 | 3.5 | 0.00 | 0.06 | 0.00 | 88 | 1022.2 |
| 20260506133535 | 46 | 360 | 0.9 | 3.5 | 0.00 | 0.06 | 0.00 | 88 | 1022.2 |
| 20260506133034 | 46 | 360 | 0.9 | 5.2 | 0.00 | 0.06 | 0.00 | 88 | 1022.1 |
| 20260506132536 | 45 | 360 | 1.7 | 7.8 | 0.00 | 0.06 | 0.00 | 89 | 1022.0 |
| 20260506132032 | 45 | 360 | 3.5 | 7.8 | 0.00 | 0.06 | 0.00 | 90 | 1022.1 |
| 20260506131538 | 44 | 360 | 0.9 | 3.5 | 0.00 | 0.06 | 0.00 | 89 | 1022.1 |
| 20260506131031 | 44 | 360 | 0.9 | 1.7 | 0.00 | 0.06 | 0.00 | 89 | 1022.0 |
| 20260506130531 | 44 | 221 | 0.9 | 3.5 | 0.00 | 0.06 | 0.00 | 89 | 1022.0 |
| 20260506130031 | 45 | 360 | 0.0 | 3.5 | 0.00 | 0.06 | 0.00 | 90 | 1022.0 |
| 20260506125532 | 45 | 254 | 1.7 | 5.2 | 0.00 | 0.06 | 0.00 | 90 | 1022.0 |
| 20260506125033 | 44 | 360 | 2.6 | 5.2 | 0.00 | 0.06 | 0.00 | 90 | 1021.9 |
| 20260506124530 | 45 | 299 | 0.9 | 5.2 | 0.00 | 0.06 | 0.00 | 89 | 1021.8 |
| 20260506124030 | 45 | 360 | 1.7 | 5.2 | 0.00 | 0.06 | 0.00 | 90 | 1021.8 |
| 20260506123028 | 44 | 360 | 2.6 | 5.2 | 0.00 | 0.06 | 0.00 | 90 | 1021.9 |
| 20260506122527 | 44 | 360 | 0.0 | 2.6 | 0.00 | 0.06 | 0.00 | 90 | 1021.7 |
| 20260506122028 | 44 | 360 | 0.0 | 3.5 | 0.00 | 0.06 | 0.00 | 90 | 1021.7 |
| 20260506121527 | 45 | 265 | 0.9 | 3.5 | 0.00 | 0.06 | 0.00 | 90 | 1021.7 |
| 20260506121025 | 45 | 360 | 0.9 | 3.5 | 0.00 | 0.06 | 0.00 | 90 | 1021.9 |
| 20260506120527 | 45 | 360 | 0.9 | 4.3 | 0.00 | 0.06 | 0.00 | 90 | 1021.8 |
| 20260506120024 | 45 | 244 | 0.9 | 4.3 | 0.00 | 0.06 | 0.00 | 90 | 1021.8 |
| 20260506115526 | 45 | 360 | 0.9 | 5.2 | 0.00 | 0.06 | 0.00 | 90 | 1021.8 |
| 20260506115024 | 45 | 322 | 0.0 | 5.2 | 0.00 | 0.06 | 0.00 | 90 | 1021.9 |
| 20260506114528 | 45 | 360 | 1.7 | 4.3 | 0.00 | 0.06 | 0.00 | 90 | 1021.9 |
| 20260506114022 | 45 | 360 | 1.7 | 4.3 | 0.00 | 0.06 | 0.00 | 90 | 1021.9 |
| 20260506113521 | 46 | 275 | 0.9 | 2.6 | 0.00 | 0.06 | 0.00 | 90 | 1021.7 |
| 20260506113034 | 46 | 360 | 0.0 | 2.6 | 0.00 | 0.06 | 0.00 | 89 | 1021.8 |
| 20260506112521 | 46 | 242 | 0.0 | 2.6 | 0.00 | 0.06 | 0.00 | 89 | 1021.8 |
| 20260506112019 | 46 | 360 | 0.9 | 2.6 | 0.00 | 0.06 | 0.00 | 89 | 1021.8 |
| 20260506111520 | 46 | 360 | 0.0 | 4.3 | 0.00 | 0.06 | 0.00 | 90 | 1021.7 |
| 20260506111019 | 46 | 360 | 1.7 | 4.3 | 0.00 | 0.06 | 0.00 | 90 | 1021.6 |
| 20260506110519 | 46 | 360 | 0.9 | 2.6 | 0.00 | 0.06 | 0.00 | 90 | 1021.7 |
| 20260506110121 | 46 | 247 | 0.9 | 3.5 | 0.00 | 0.06 | 0.00 | 89 | 1021.6 |
| 20260506105519 | 46 | 360 | 0.0 | 5.2 | 0.00 | 0.06 | 0.00 | 89 | 1021.7 |
| 20260506105019 | 47 | 269 | 1.7 | 5.2 | 0.00 | 0.06 | 0.00 | 89 | 1021.6 |
| 20260506104521 | 47 | 360 | 0.9 | 3.5 | 0.00 | 0.06 | 0.00 | 89 | 1021.5 |
| 20260506104018 | 47 | 360 | 0.9 | 2.6 | 0.00 | 0.06 | 0.00 | 89 | 1021.5 |
| 20260506103517 | 47 | 333 | 0.9 | 3.5 | 0.00 | 0.06 | 0.00 | 88 | 1021.6 |
| 20260506102517 | 47 | 360 | 1.7 | 5.2 | 0.00 | 0.06 | 0.00 | 88 | 1021.5 |
| 20260506102017 | 47 | 360 | 0.9 | 7.0 | 0.00 | 0.06 | 0.00 | 88 | 1021.5 |
| 20260506101516 | 47 | 360 | 2.6 | 7.0 | 0.00 | 0.06 | 0.00 | 87 | 1021.6 |
| 20260506101015 | 47 | 360 | 0.9 | 5.2 | 0.00 | 0.06 | 0.00 | 86 | 1021.5 |
| 20260506100515 | 47 | 360 | 1.7 | 5.2 | 0.00 | 0.06 | 0.00 | 86 | 1021.4 |
| 20260506100015 | 47 | 360 | 0.9 | 3.5 | 0.00 | 0.06 | 0.00 | 86 | 1021.4 |
| 20260506095515 | 47 | 360 | 1.7 | 5.2 | 0.00 | 0.06 | 0.00 | 85 | 1021.4 |
| 20260506095015 | 47 | 360 | 1.7 | 5.2 | 0.00 | 0.06 | 0.00 | 84 | 1021.3 |
| 20260506094514 | 47 | 217 | 0.9 | 4.3 | 0.00 | 0.06 | 0.00 | 84 | 1021.3 |
| 20260506094014 | 47 | 360 | 1.7 | 6.1 | 0.00 | 0.06 | 0.00 | 84 | 1021.2 |
| 20260506093514 | 47 | 360 | 0.9 | 7.8 | 0.00 | 0.06 | 0.00 | 85 | 1021.3 |
| 20260506093013 | 47 | 360 | 1.7 | 7.8 | 0.00 | 0.06 | 0.00 | 85 | 1021.2 |
| 20260506092513 | 47 | 360 | 0.9 | 5.2 | 0.00 | 0.06 | 0.00 | 85 | 1021.3 |
| 20260506092013 | 47 | 182 | 1.7 | 4.3 | 0.00 | 0.06 | 0.00 | 85 | 1021.2 |
| 20260506091513 | 47 | 360 | 0.9 | 7.8 | 0.00 | 0.06 | 0.00 | 85 | 1021.3 |
| 20260506091012 | 47 | 360 | 2.6 | 7.8 | 0.00 | 0.06 | 0.00 | 85 | 1021.4 |
| 20260506090511 | 47 | 360 | 2.6 | 9.6 | 0.00 | 0.06 | 0.00 | 85 | 1021.4 |
| 20260506090019 | 47 | 360 | 3.5 | 9.6 | 0.00 | 0.06 | 0.00 | 85 | 1021.4 |
| 20260506085511 | 47 | 360 | 0.9 | 4.3 | 0.00 | 0.06 | 0.00 | 85 | 1021.3 |
| 20260506085011 | 47 | 266 | 0.9 | 4.3 | 0.00 | 0.06 | 0.00 | 85 | 1021.3 |
| 20260506084513 | 47 | 360 | 0.0 | 7.0 | 0.00 | 0.06 | 0.00 | 85 | 1021.4 |
| 20260506084012 | 47 | 360 | 2.6 | 9.6 | 0.00 | 0.06 | 0.00 | 85 | 1021.2 |
| 20260506083511 | 47 | 170 | 1.7 | 9.6 | 0.00 | 0.06 | 0.00 | 85 | 1021.3 |
| 20260506083012 | 47 | 360 | 2.6 | 5.2 | 0.00 | 0.06 | 0.00 | 85 | 1021.3 |
| 20260506082509 | 47 | 360 | 2.6 | 5.2 | 0.00 | 0.06 | 0.00 | 85 | 1021.3 |
| 20260506082010 | 47 | 360 | 1.7 | 7.8 | 0.00 | 0.06 | 0.00 | 85 | 1021.2 |
| 20260506081508 | 47 | 360 | 3.5 | 7.8 | 0.00 | 0.06 | 0.00 | 86 | 1021.2 |
| 20260506081010 | 47 | 360 | 0.9 | 3.5 | 0.00 | 0.06 | 0.00 | 85 | 1021.3 |
| 20260506080507 | 47 | 277 | 0.9 | 8.7 | 0.00 | 0.06 | 0.00 | 85 | 1021.1 |
| 20260506073503 | 46 | 360 | 2.6 | 7.0 | 0.00 | 0.06 | 0.00 | 86 | 1021.0 |
| 20260506073003 | 46 | 360 | 0.9 | 7.0 | 0.00 | 0.06 | 0.00 | 86 | 1021.1 |
| 20260506072602 | 46 | 360 | 0.9 | 4.3 | 0.00 | 0.06 | 0.00 | 86 | 1020.9 |
| 20260506072002 | 46 | 360 | 0.9 | 7.8 | 0.01 | 0.06 | 0.00 | 86 | 1021.0 |
| 20260506071606 | 46 | 360 | 2.6 | 5.2 | 0.01 | 0.06 | 0.00 | 86 | 1020.9 |
| 20260506071100 | 46 | 360 | 1.7 | 5.2 | 0.01 | 0.06 | 0.00 | 86 | 1020.9 |
| 20260506070602 | 46 | 360 | 0.9 | 10.4 | 0.01 | 0.06 | 0.00 | 86 | 1020.8 |
| 20260506061555 | 46 | 360 | 2.6 | 9.6 | 0.00 | 0.05 | 0.05 | 86 | 1020.5 |
| 20260506061055 | 46 | 360 | 3.5 | 9.6 | 0.00 | 0.05 | 0.05 | 86 | 1020.4 |
| 20260506060555 | 46 | 192 | 2.6 | 7.0 | 0.00 | 0.05 | 0.05 | 87 | 1020.4 |
| 20260506051052 | 46 | 360 | 3.5 | 8.7 | 0.00 | 0.05 | 0.05 | 87 | 1020.1 |
| 20260506050551 | 46 | 360 | 2.6 | 8.7 | 0.00 | 0.05 | 0.05 | 87 | 1020.1 |
| 20260506045050 | 46 | 247 | 3.5 | 11.3 | 0.00 | 0.05 | 0.05 | 87 | 1019.9 |
| 20260506044553 | 46 | 360 | 2.6 | 11.3 | 0.00 | 0.05 | 0.05 | 87 | 1019.9 |
| 20260506044049 | 46 | 360 | 4.3 | 8.7 | 0.00 | 0.05 | 0.05 | 87 | 1020.0 |
| 20260506043549 | 46 | 197 | 2.6 | 9.6 | 0.00 | 0.05 | 0.05 | 88 | 1019.9 |
| 20260506043049 | 46 | 197 | 5.2 | 9.6 | 0.00 | 0.05 | 0.05 | 88 | 1019.8 |
| 20260506042549 | 46 | 360 | 3.5 | 7.0 | 0.00 | 0.05 | 0.05 | 88 | 1019.8 |
| 20260506042049 | 46 | 360 | 1.7 | 7.0 | 0.00 | 0.05 | 0.05 | 88 | 1019.7 |
| 20260506041548 | 46 | 360 | 2.6 | 7.0 | 0.00 | 0.05 | 0.05 | 88 | 1019.7 |
| 20260506041048 | 46 | 360 | 1.7 | 7.8 | 0.00 | 0.05 | 0.05 | 88 | 1019.6 |
| 20260506040546 | 46 | 360 | 2.6 | 8.7 | 0.00 | 0.05 | 0.05 | 88 | 1019.5 |
| 20260506040047 | 46 | 360 | 3.5 | 8.7 | 0.00 | 0.05 | 0.05 | 89 | 1019.5 |
| 20260506035548 | 46 | 360 | 2.6 | 7.0 | 0.00 | 0.05 | 0.05 | 89 | 1019.5 |
| 20260506035045 | 46 | 360 | 3.5 | 7.0 | 0.00 | 0.05 | 0.05 | 89 | 1019.4 |
| 20260506034559 | 46 | 360 | 3.5 | 5.2 | 0.00 | 0.05 | 0.05 | 89 | 1019.4 |
| 20260506034044 | 46 | 360 | 1.7 | 4.3 | 0.00 | 0.05 | 0.05 | 89 | 1019.3 |
| 20260506033543 | 46 | 360 | 0.0 | 5.2 | 0.00 | 0.05 | 0.05 | 89 | 1019.2 |
| 20260506033043 | 46 | 360 | 2.6 | 5.2 | 0.00 | 0.05 | 0.05 | 89 | 1019.3 |
| 20260506032546 | 46 | 360 | 2.6 | 5.2 | 0.00 | 0.05 | 0.05 | 89 | 1019.2 |
| 20260506032044 | 46 | 360 | 1.7 | 7.8 | 0.00 | 0.05 | 0.05 | 90 | 1019.1 |
| 20260506031642 | 46 | 269 | 1.7 | 7.8 | 0.00 | 0.05 | 0.05 | 90 | 1019.1 |
| 20260506031039 | 45 | 360 | 2.6 | 7.8 | 0.00 | 0.05 | 0.05 | 90 | 1018.9 |
| 20260506030539 | 45 | 360 | 1.7 | 7.8 | 0.00 | 0.05 | 0.05 | 90 | 1018.8 |
| 20260506030042 | 46 | 360 | 1.7 | 4.3 | 0.00 | 0.05 | 0.05 | 90 | 1018.8 |
| 20260506025539 | 46 | 360 | 1.7 | 7.0 | 0.00 | 0.05 | 0.05 | 90 | 1018.7 |
| 20260506025038 | 46 | 360 | 1.7 | 7.0 | 0.00 | 0.05 | 0.05 | 90 | 1018.5 |
| 20260506024556 | 46 | 360 | 2.6 | 7.8 | 0.00 | 0.05 | 0.05 | 90 | 1018.5 |
| 20260506024037 | 46 | 360 | 1.7 | 7.8 | 0.00 | 0.05 | 0.05 | 90 | 1018.3 |
| 20260506023537 | 46 | 243 | 1.7 | 7.0 | 0.00 | 0.05 | 0.05 | 90 | 1018.3 |
| 20260506023037 | 46 | 360 | 1.7 | 7.0 | 0.00 | 0.05 | 0.05 | 91 | 1018.3 |
| 20260506022539 | 46 | 360 | 2.6 | 4.3 | 0.00 | 0.05 | 0.05 | 91 | 1018.4 |
| 20260506022035 | 46 | 360 | 1.7 | 7.0 | 0.00 | 0.05 | 0.05 | 91 | 1018.3 |
| 20260506021535 | 46 | 360 | 2.6 | 5.2 | 0.00 | 0.05 | 0.05 | 91 | 1018.3 |
| 20260506021035 | 47 | 360 | 1.7 | 5.2 | 0.00 | 0.05 | 0.05 | 91 | 1018.2 |
| 20260506020534 | 46 | 360 | 1.7 | 7.0 | 0.00 | 0.05 | 0.05 | 91 | 1018.2 |
| 20260506020034 | 46 | 360 | 1.7 | 7.0 | 0.00 | 0.05 | 0.05 | 92 | 1018.2 |
| 20260506015534 | 46 | 360 | 2.6 | 7.8 | 0.00 | 0.05 | 0.05 | 92 | 1018.0 |
| 20260506015034 | 46 | 279 | 2.6 | 7.8 | 0.00 | 0.05 | 0.05 | 92 | 1018.0 |
| 20260506014533 | 47 | 360 | 0.9 | 4.3 | 0.00 | 0.05 | 0.05 | 92 | 1017.9 |
| 20260506014032 | 47 | 360 | 0.9 | 7.0 | 0.00 | 0.05 | 0.05 | 92 | 1018.0 |
| 20260506013532 | 47 | 360 | 1.7 | 7.8 | 0.00 | 0.05 | 0.05 | 92 | 1017.9 |
| 20260506013041 | 47 | 360 | 1.7 | 7.8 | 0.00 | 0.05 | 0.05 | 92 | 1017.8 |
| 20260506012534 | 47 | 360 | 1.7 | 7.8 | 0.00 | 0.05 | 0.05 | 92 | 1017.8 |
| 20260506012032 | 47 | 360 | 2.6 | 7.0 | 0.00 | 0.05 | 0.05 | 93 | 1017.9 |
| 20260506011531 | 47 | 360 | 1.7 | 7.8 | 0.00 | 0.05 | 0.05 | 93 | 1017.9 |
| 20260506010531 | 46 | 360 | 2.6 | 8.7 | 0.00 | 0.05 | 0.05 | 94 | 1017.7 |
| 20260506010031 | 46 | 360 | 0.9 | 7.8 | 0.00 | 0.05 | 0.05 | 94 | 1017.7 |
| 20260506005530 | 46 | 360 | 2.6 | 7.8 | 0.00 | 0.05 | 0.05 | 94 | 1017.7 |